Location: Newark
(41.8083°N, 72.2500°W)
Time: 19:10:10
(UTC+00:00)

Courier 1B - Pass Details

Date: 06 December 2021
Orbit: 962 x 1209 km, 28.3° (Epoch: 19 January)

Event Time Altitude Azimuth Distance (km) Brightness Sun altitude
Rises 22:47:04 0° 251° (WSW) 4,032 12.6 -16.0°
Reaches altitude 10° 22:50:24 10° 240° (WSW) 3,034 11.3 -16.6°
Maximum altitude 22:56:25 27° 186° (S) 1,981 9.3 -17.7°
Drops below altitude 10° 23:02:10 10° 132° (SE) 2,883 9.6 -18.8°
Enters shadow 23:02:30 - 130° (SE) 2,976 9.7 -18.8°
Sets 23:05:15 0° 120° (ESE) 3,795 - -19.3°
